TimeCST,TemperatureF,Dew PointF,Humidity,Sea Level PressureIn,VisibilityMPH,Wind Direction,Wind SpeedMPH,Gust SpeedMPH,PrecipitationIn,Events,Conditions,WindDirDegrees,DateUTC
12:15 AM,23.7,15.8,72,29.98,10.0,WSW,9.2,-,N/A,,Mostly Cloudy,250,2013-02-23 06:15:00
12:35 AM,23.7,15.8,72,29.98,10.0,West,11.5,-,N/A,,Mostly Cloudy,260,2013-02-23 06:35:00
12:55 AM,23.7,15.8,72,29.98,10.0,West,8.1,-,N/A,,Overcast,260,2013-02-23 06:55:00
1:15 AM,23.5,15.8,72,29.98,10.0,West,9.2,-,N/A,,Mostly Cloudy,270,2013-02-23 07:15:00
1:35 AM,23.2,15.8,73,29.98,10.0,West,9.2,16.1,N/A,,Overcast,280,2013-02-23 07:35:00
1:55 AM,23.2,15.8,73,29.99,10.0,West,11.5,-,N/A,,Overcast,270,2013-02-23 07:55:00
2:15 AM,23.0,15.8,74,29.99,10.0,West,9.2,-,N/A,,Overcast,280,2013-02-23 08:15:00
2:35 AM,22.6,15.1,73,29.98,10.0,West,13.8,-,N/A,,Overcast,280,2013-02-23 08:35:00
2:55 AM,22.5,14.9,73,29.98,10.0,West,9.2,-,N/A,,Overcast,280,2013-02-23 08:55:00
3:15 AM,22.3,15.4,75,29.97,10.0,West,6.9,-,N/A,,Overcast,270,2013-02-23 09:15:00
3:35 AM,22.1,15.6,76,29.97,10.0,West,6.9,-,N/A,,Overcast,270,2013-02-23 09:35:00
3:55 AM,21.9,15.4,76,29.97,10.0,West,6.9,-,N/A,,Overcast,260,2013-02-23 09:55:00
4:15 AM,21.7,15.4,77,29.96,10.0,WSW,9.2,-,N/A,,Overcast,250,2013-02-23 10:15:00
4:35 AM,21.9,15.6,77,29.97,10.0,WSW,5.8,-,N/A,,Overcast,250,2013-02-23 10:35:00
4:55 AM,20.8,14.9,78,29.97,10.0,WSW,6.9,-,N/A,,Mostly Cloudy,240,2013-02-23 10:55:00
5:15 AM,20.8,15.3,79,29.97,10.0,West,6.9,-,N/A,,Overcast,260,2013-02-23 11:15:00
5:35 AM,20.3,15.1,80,29.97,10.0,West,6.9,-,N/A,,Mostly Cloudy,260,2013-02-23 11:35:00
5:55 AM,19.8,14.9,81,29.98,10.0,West,6.9,-,N/A,,Scattered Clouds,260,2013-02-23 11:55:00
6:15 AM,18.5,14.4,84,29.98,10.0,West,6.9,-,N/A,,Clear,260,2013-02-23 12:15:00
6:35 AM,18.1,14.0,84,29.98,10.0,West,5.8,-,N/A,,Clear,260,2013-02-23 12:35:00
6:55 AM,17.4,13.6,85,29.99,10.0,West,5.8,-,N/A,,Clear,260,2013-02-23 12:55:00
7:15 AM,17.2,13.5,85,29.98,10.0,West,5.8,-,N/A,,Clear,260,2013-02-23 13:15:00
7:35 AM,17.6,13.1,83,29.98,10.0,West,4.6,-,N/A,,Clear,260,2013-02-23 13:35:00
7:55 AM,18.3,13.5,81,29.98,10.0,West,5.8,-,N/A,,Clear,270,2013-02-23 13:55:00
8:15 AM,19.0,13.8,80,29.98,10.0,WSW,5.8,-,N/A,,Clear,250,2013-02-23 14:15:00
8:35 AM,20.3,13.8,76,29.98,10.0,SW,5.8,-,N/A,,Clear,230,2013-02-23 14:35:00
8:55 AM,20.8,14.0,75,29.99,10.0,SW,5.8,-,N/A,,Clear,230,2013-02-23 14:55:00
9:15 AM,22.1,14.5,73,29.98,10.0,WSW,5.8,-,N/A,,Clear,250,2013-02-23 15:15:00
9:35 AM,23.0,14.9,71,29.98,10.0,WSW,6.9,-,N/A,,Clear,250,2013-02-23 15:35:00
9:55 AM,23.9,15.4,70,29.99,10.0,WSW,5.8,-,N/A,,Clear,240,2013-02-23 15:55:00
10:15 AM,26.1,15.8,65,29.98,10.0,WSW,5.8,-,N/A,,Clear,240,2013-02-23 16:15:00
10:35 AM,26.4,16.3,66,29.98,10.0,West,6.9,-,N/A,,Clear,270,2013-02-23 16:35:00
10:55 AM,27.1,16.5,64,29.97,10.0,West,9.2,-,N/A,,Clear,260,2013-02-23 16:55:00
11:15 AM,28.2,16.5,62,29.97,10.0,WSW,9.2,-,N/A,,Clear,250,2013-02-23 17:15:00
11:35 AM,28.9,16.2,59,29.97,10.0,WSW,9.2,-,N/A,,Clear,250,2013-02-23 17:35:00
12:15 PM,30.0,16.3,57,29.96,10.0,West,6.9,-,N/A,,Clear,270,2013-02-23 18:15:00
12:35 PM,30.6,16.7,56,29.95,10.0,WSW,6.9,-,N/A,,Clear,250,2013-02-23 18:35:00
12:55 PM,30.9,16.7,56,29.95,10.0,WSW,4.6,-,N/A,,Clear,250,2013-02-23 18:55:00
1:15 PM,31.3,16.5,54,29.95,10.0,WSW,8.1,-,N/A,,Clear,240,2013-02-23 19:15:00
1:35 PM,33.1,17.1,52,29.94,10.0,WSW,6.9,-,N/A,,Clear,250,2013-02-23 19:35:00
1:55 PM,33.6,17.4,52,29.94,10.0,WSW,5.8,-,N/A,,Clear,240,2013-02-23 19:55:00
2:15 PM,34.2,17.1,50,29.93,10.0,WSW,6.9,-,N/A,,Clear,250,2013-02-23 20:15:00
2:35 PM,34.3,17.6,50,29.93,10.0,SW,5.8,-,N/A,,Clear,220,2013-02-23 20:35:00
2:55 PM,34.5,17.6,50,29.93,10.0,WSW,6.9,-,N/A,,Clear,250,2013-02-23 20:55:00
3:15 PM,34.7,18.0,51,29.93,10.0,WSW,6.9,-,N/A,,Clear,250,2013-02-23 21:15:00
3:35 PM,34.3,17.8,51,29.93,10.0,WSW,9.2,-,N/A,,Clear,250,2013-02-23 21:35:00
3:55 PM,34.2,18.1,52,29.93,10.0,WSW,9.2,-,N/A,,Clear,250,2013-02-23 21:55:00
4:15 PM,34.3,18.0,51,29.94,10.0,West,5.8,-,N/A,,Clear,260,2013-02-23 22:15:00
4:35 PM,34.0,18.1,52,29.93,10.0,WSW,6.9,-,N/A,,Clear,240,2013-02-23 22:35:00
4:55 PM,33.6,18.0,53,29.92,10.0,WSW,6.9,-,N/A,,Clear,240,2013-02-23 22:55:00
5:15 PM,32.9,18.3,55,29.93,10.0,South,3.5,-,N/A,,Clear,180,2013-02-23 23:15:00
5:35 PM,30.6,18.7,61,29.93,10.0,South,8.1,-,N/A,,Clear,180,2013-02-23 23:35:00
5:55 PM,29.8,18.5,63,29.93,10.0,South,6.9,-,N/A,,Clear,190,2013-02-23 23:55:00
6:15 PM,28.8,18.3,65,29.93,10.0,South,4.6,-,N/A,,Clear,190,2013-02-24 00:15:00
6:35 PM,28.4,18.1,65,29.94,10.0,SSW,4.6,-,N/A,,Clear,200,2013-02-24 00:35:00
6:55 PM,27.5,17.6,66,29.94,10.0,South,4.6,-,N/A,,Clear,190,2013-02-24 00:55:00
7:15 PM,26.6,17.6,69,29.94,10.0,SSE,5.8,-,N/A,,Clear,160,2013-02-24 01:15:00
7:35 PM,26.2,17.2,69,29.93,10.0,SSE,5.8,-,N/A,,Clear,160,2013-02-24 01:35:00
7:55 PM,25.5,16.9,70,29.93,10.0,South,5.8,-,N/A,,Clear,170,2013-02-24 01:55:00
8:15 PM,25.7,17.4,71,29.93,10.0,South,4.6,-,N/A,,Clear,170,2013-02-24 02:15:00
8:35 PM,25.3,17.4,72,29.94,10.0,South,4.6,-,N/A,,Clear,190,2013-02-24 02:35:00
8:55 PM,24.8,16.7,71,29.94,10.0,SSE,6.9,-,N/A,,Clear,160,2013-02-24 02:55:00
9:15 PM,24.4,16.7,72,29.94,10.0,SSE,5.8,-,N/A,,Clear,160,2013-02-24 03:15:00
9:35 PM,23.5,16.3,74,29.95,10.0,South,6.9,-,N/A,,Clear,190,2013-02-24 03:35:00
9:55 PM,23.9,16.7,74,29.96,10.0,South,5.8,-,N/A,,Clear,190,2013-02-24 03:55:00
10:35 PM,23.0,16.5,76,29.96,10.0,SSW,4.6,-,N/A,,Clear,200,2013-02-24 04:35:00
10:55 PM,23.0,16.5,76,29.97,10.0,SSW,3.5,-,N/A,,Clear,200,2013-02-24 04:55:00
11:15 PM,21.7,15.8,78,29.96,10.0,South,3.5,-,N/A,,Clear,170,2013-02-24 05:15:00
11:35 PM,21.9,16.2,78,29.96,10.0,South,4.6,-,N/A,,Clear,190,2013-02-24 05:35:00
11:55 PM,21.0,15.6,80,29.97,10.0,SSE,4.6,-,N/A,,Clear,160,2013-02-24 05:55:00